User: anonymous   Login
Location: Unspecified
(0.0000°N, 0.0000°E)
Time: 09:32:21
(UTC+00:00)
Language:

Tiros 1 - Orbit

View from above orbital plane
View from above orbital plane
View from above satellite
View from above satellite

Ground track
Ground track

The orbit data is extracted from the following two-line orbital elements,

1 00029U 60002B   15145.14287145  .00000121  00000-0  49322-4 0  9995
2 00029 048.3810 038.3074 0024612 239.4980 120.3502 14.73805090945662
Epoch (UTC): 25 May 2015 03:25:44
Eccentricity: 0.0024612
inclination: 48.3810°
perigee height: 631 km
apogee height: 666 km
right ascension of ascending node: 38.3074°
argument of perigee: 239.4980°
revolutions per day: 14.73805090
mean anomaly at epoch: 120.3502°
orbit number at epoch: 94566

The dashed part of the orbit path shows where the satellite is in the earth's shadow,  

DLR